Location: Muenchen
(48.1800°N, 11.5800°E)
Time: 11:10:06
(UTC+01:00)

Cosmos 1455 - Visible Passes

Search period start: 01 February 2015 00:00
Search period end: 11 February 2015 00:00
Orbit: 512 x 540 km, 82.5° (Epoch: 31 January)

Date Brightness Start Highest point End Pass type
(mag) Time Alt. Az. Time Alt. Az. Time Alt. Az.
01 Feb 2.4 06:39:01 10° S 06:42:49 77° E 06:46:39 10° NNE visible
01 Feb 4.0 18:07:45 10° NNW 18:11:22 37° W 18:14:58 10° SSW visible
02 Feb 2.5 06:27:18 10° S 06:31:04 69° E 06:34:53 10° NNE visible
02 Feb 3.8 17:55:57 10° NNW 17:59:38 41° W 18:03:19 10° SSW visible
03 Feb 2.7 06:15:35 10° S 06:19:20 62° E 06:23:08 10° NNE visible
03 Feb 3.6 17:44:10 10° NNW 17:47:55 45° W 17:51:38 10° SSW visible
04 Feb 2.9 06:03:52 10° S 06:07:35 55° E 06:11:21 10° NNE visible
05 Feb 3.1 05:52:09 10° S 05:55:50 50° E 05:59:34 10° NNE visible
06 Feb 3.4 05:40:26 10° SSE 05:44:04 45° E 05:47:45 10° NNE visible
07 Feb 3.6 05:28:44 10° SSE 05:32:17 40° E 05:35:55 10° NNE visible
08 Feb 3.8 05:17:01 10° SSE 05:20:31 36° E 05:24:05 10° NNE visible
08 Feb 3.6 06:53:49 10° WSW 06:56:39 19° WNW 06:59:26 10° NNW visible
09 Feb 3.9 05:05:19 10° SSE 05:08:44 33° E 05:12:13 10° NNE visible
09 Feb 3.5 06:41:49 10° WSW 06:44:48 21° WNW 06:47:44 10° NNW visible
10 Feb 4.1 04:53:36 10° SSE 04:56:56 30° E 05:00:20 10° NNE visible
10 Feb 3.3 06:29:50 10° SW 06:32:57 23° WNW 06:36:02 10° NNW visible
